Location: Grantsboro
(35.1404°N, 76.8424°W)
Time: 22:39:26
(UTC+00:00)

STARLINK-24 - Pass Details

Date: 18 January 2020
Orbit: 528 x 529 km, 53.0° (Epoch: 18 February)

Event Time Altitude Azimuth Distance (km) Brightness Sun altitude
Exits shadow 10:57:13 - 223° (SW) 1,877 6.1 -15.7°
Reaches altitude 10° 10:57:31 10° 223° (SW) 1,762 5.9 -15.6°
Maximum altitude 11:01:31 85° 135° (SE) 533 3.5 -14.8°
Drops below altitude 10° 11:05:32 10° 47° (NE) 1,773 6.6 -14.1°
Sets 11:07:45 0° 47° (NE) 2,666 7.6 -13.6°
